FW8621 Weather Reports


time (UTC)temp
C
wind
direction
speed
KPH
gust
KPH
rain 1hr
cm
rain 24hr
cm
rain mn
cm
humidity
%
barometer
mb
20260906051609 22 0 0.0 0.0 0.00 0.00 0.00 77 1022.5
20260906050107 21 0 0.0 0.0 0.00 0.00 0.00 77 1022.4
20260906044606 21 0 0.0 0.0 0.00 0.00 0.00 78 1022.2
20260906043103 21 0 0.0 0.0 0.00 0.00 0.00 76 1022.0
20260906041614 21 0 0.0 0.0 0.00 0.00 0.00 77 1022.0
20260906040115 21 0 0.0 0.0 0.00 0.00 0.00 76 1022.0
20260906034606 21 0 0.0 0.0 0.00 0.00 0.00 75 1021.6
20260906033107 22 0 0.0 0.0 0.00 0.00 0.00 76 1021.4
20260906031611 21 0 0.0 0.0 0.00 0.00 0.00 76 1021.5
20260906030120 21 0 0.0 0.0 0.00 0.00 0.00 76 1021.5
20260906024630 22 0 0.0 0.0 0.00 0.00 0.00 76 1021.4
20260906023104 22 0 0.0 0.0 0.00 0.00 0.00 75 1021.5
20260906021619 22 0 0.0 1.6 0.00 0.00 0.00 74 1021.3
20260906020115 22 0 0.0 0.0 0.00 0.00 0.00 74 1021.4
20260906014612 22 0 0.0 1.6 0.00 0.00 0.00 74 1021.3
20260906013104 22 0 0.0 0.0 0.00 0.00 0.00 75 1021.2
20260906011604 22 0 0.0 0.0 0.00 0.00 0.00 75 1021.3
20260906010119 22 0 0.0 1.6 0.00 0.00 0.00 72 1021.3
20260906004610 22 0 0.0 1.6 0.00 0.00 0.00 70 1021.1
20260906003120 22 0 0.0 0.0 0.00 0.00 0.00 71 1021.0
20260906001608 22 0 0.0 0.0 0.00 0.00 0.00 69 1021.1
20260906000109 23 0 0.0 0.0 0.00 0.00 0.00 69 1021.2
20260905234609 23 0 0.0 0.0 0.00 0.00 0.00 71 1021.0
20260905233104 23 0 0.0 0.0 0.00 0.00 0.00 71 1021.1
20260905231608 23 0 0.0 0.0 0.00 0.00 0.00 72 1021.1
20260905230111 23 0 0.0 0.0 0.00 0.00 0.00 74 1021.0
20260905224605 23 0 0.0 0.0 0.00 0.00 0.00 76 1021.1
20260905223105 23 0 0.0 0.0 0.00 0.00 0.00 77 1021.1
20260905221603 23 0 0.0 0.0 0.00 0.00 0.00 76 1021.1
20260905220106 23 0 0.0 0.0 0.00 0.00 0.00 77 1021.0
20260905214609 24 0 0.0 0.0 0.00 0.00 0.00 79 1021.0
20260905213105 24 0 0.0 0.0 0.00 0.00 0.00 79 1020.9
20260905211606 24 0 0.0 0.0 0.00 0.00 0.00 79 1020.9
20260905210108 25 0 0.0 0.0 0.00 0.00 0.00 79 1020.9
20260905204613 25 0 0.0 0.0 0.00 0.00 0.00 79 1020.8
20260905203111 25 0 0.0 0.0 0.00 0.00 0.00 78 1020.8
20260905201604 25 0 0.0 0.0 0.00 0.00 0.00 77 1020.8
20260905200109 26 0 0.0 0.0 0.00 0.00 0.00 76 1020.8
20260905194616 26 0 0.0 0.0 0.00 0.00 0.00 76 1020.6
20260905193110 26 0 0.0 0.0 0.00 0.00 0.00 75 1020.6
20260905191611 26 0 0.0 0.0 0.00 0.00 0.00 75 1020.5
20260905190107 27 0 0.0 0.0 0.00 0.00 0.00 74 1020.5
20260905184613 27 0 0.0 0.0 0.00 0.00 0.00 73 1020.5
20260905183106 27 0 0.0 0.0 0.00 0.00 0.00 71 1020.3
20260905181605 28 0 0.0 1.6 0.00 0.00 0.00 70 1020.2
20260905180108 28 0 0.0 0.0 0.00 0.00 0.00 69 1020.0
20260905174605 29 0 0.0 1.6 0.00 0.00 0.00 67 1020.0
20260905173106 30 0 0.0 1.6 0.00 0.00 0.00 63 1019.7
20260905171603 30 0 0.0 1.6 0.00 0.00 0.00 57 1019.6
20260905170114 31 0 0.0 3.2 0.00 0.00 0.00 53 1019.6
20260905164606 32 148 0.0 1.6 0.00 0.00 0.00 48 1019.6
20260905163111 34 0 0.0 3.2 0.00 0.00 0.00 44 1019.6
20260905161604 36 0 0.0 1.6 0.00 0.00 0.00 36 1019.3
20260905160107 37 0 0.0 1.6 0.00 0.00 0.00 36 1019.2
20260905154606 37 0 0.0 3.2 0.00 0.00 0.00 37 1019.4
20260905153104 37 0 0.0 1.6 0.00 0.00 0.00 38 1019.3
20260905151608 36 0 0.0 1.6 0.00 0.00 0.00 40 1019.3
20260905150104 37 120 0.0 6.4 0.00 0.00 0.00 36 1019.3
20260905144602 37 290 0.0 3.2 0.00 0.00 0.00 39 1019.4
20260905143110 37 0 0.0 3.2 0.00 0.00 0.00 38 1019.5
20260905141602 35 0 0.0 4.8 0.00 0.00 0.00 42 1019.6
20260905140104 35 124 0.0 1.6 0.00 0.00 0.00 44 1019.5
20260905134603 34 0 0.0 1.6 0.00 0.00 0.00 45 1019.7
20260905133105 33 0 0.0 1.6 0.00 0.00 0.00 48 1019.6
20260905131605 33 157 0.0 1.6 0.00 0.00 0.00 51 1019.5
20260905124604 34 0 0.0 1.6 0.00 0.00 0.00 47 1019.6
20260905123110 33 0 0.0 1.6 0.00 0.00 0.00 46 1019.6
20260905121605 33 0 0.0 1.6 0.00 0.00 0.00 47 1019.6
20260905120107 33 327 0.0 1.6 0.00 0.00 0.00 43 1019.6
20260905114601 33 60 0.0 1.6 0.00 0.00 0.00 42 1019.8
20260905113108 33 0 0.0 1.6 0.00 0.00 0.00 42 1019.9
20260905111647 33 0 0.0 1.6 0.00 0.00 0.00 43 1019.9
20260905104606 33 0 0.0 1.6 0.00 0.00 0.00 47 1019.8
20260905103104 33 0 0.0 1.6 0.00 0.00 0.00 48 1019.7
20260905101608 33 0 0.0 3.2 0.00 0.00 0.00 44 1019.7
20260905100110 33 0 0.0 1.6 0.00 0.00 0.00 40 1019.9
20260905094603 33 0 0.0 1.6 0.00 0.00 0.00 35 1019.9
20260905093103 32 0 0.0 1.6 0.00 0.00 0.00 36 1020.0
20260905091613 32 0 0.0 1.6 0.00 0.00 0.00 39 1020.1
20260905090104 31 0 0.0 1.6 0.00 0.00 0.00 43 1020.0
20260905084603 30 0 0.0 1.6 0.00 0.00 0.00 46 1020.0
20260905083104 30 0 0.0 1.6 0.00 0.00 0.00 49 1020.0
20260905081609 29 143 0.0 1.6 0.00 0.00 0.00 52 1020.0
20260905080107 28 0 0.0 1.6 0.00 0.00 0.00 55 1019.9
20260905074605 27 0 0.0 1.6 0.00 0.00 0.00 62 1019.7
20260905073104 26 0 0.0 0.0 0.00 0.00 0.00 64 1019.8
20260905071607 25 0 0.0 0.0 0.00 0.00 0.00 68 1019.8
20260905070109 24 0 0.0 0.0 0.00 0.00 0.00 71 1019.8
20260905063104 22 0 0.0 0.0 0.00 0.00 0.00 75 1019.8
20260905061613 22 0 0.0 0.0 0.00 0.00 0.00 76 1019.7
20260905060107 21 0 0.0 0.0 0.00 0.00 0.00 76 1019.6
20260905054607 21 0 0.0 0.0 0.00 0.00 0.00 76 1019.7
20260905053104 21 0 0.0 1.6 0.00 0.00 0.00 77 1019.7